Regional Weather Roundup
Issued by NWS Austin/San Antonio, TX

Home | Current Version | Previous Version | Text Only | Print | Product List | Glossary On
Versions: 1 2 3 4 5 6 7 8 9 10 11 12 13 14 15 16 17 18 19 20 21 22 23 24 25 26 27 28 29 30 31 32 33 34 35 36 37 38 39 40 41 42 43 44 45 46 47 48 49 50
000
ASUS44 KEWX 170301
RWREWX
SOUTH TEXAS REGIONAL WEATHER ROUNDUP
NATIONAL WEATHER SERVICE AUSTIN/SAN ANTONIO TX
900 PM CST SAT DEC 16 2017

NOTE: "FAIR" INDICATED FEW OR NO CLOUDS BELOW 12,000 FEET WITH NO
SIGNIFICANT WEATHER AND/OR OBSTRUCTIONS TO VISIBILITY.

* - THESE STATIONS ARE NOT NWS OR FAA STATIONS...AND ARE NOT SUBJECT
    TO NWS AND FAA QUALITY CONTROL.

TXZ171-172-183>190-170400-
TEXAS HILL COUNTRY AND EDWARDS PLATEAU

CITY           SKY/WX    TMP DP  RH WIND       PRES   REMARKS
JUNCTION       CLOUDY    44  42  93 NW3       29.99R
*LLANO         CLOUDY    45  45 100 SE5       30.06S WCI  42
BURNET         CLOUDY    43  42  97 SE5       30.05F WCI  40
*HORSESHOE BAY CLOUDY    44  44 100 SE3       30.03S
*KERRVILLE     CLOUDY    42  40  91 SE5       30.00F WCI  39
*FREDERICKSBRG CLOUDY    42  40  92 CALM      30.01F
*ROCKSPRINGS   NOT AVBL
*BOERNE STAGE  CLOUDY    41  41 100 CALM      30.03F
*CASTROVILLE   CLOUDY    45  44  97 CALM      30.05S
HONDO          CLOUDY    48  44  86 NE5       30.02F WCI  46
*UVALDE        CLOUDY    44  43  97 E7        30.02S WCI  40
DEL RIO        CLOUDY    46  43  89 SE8       30.00S WCI  42
LAUGHLIN AFB   CLOUDY    45  43  91 SE7       30.01R WCI  41
CARRIZO SPRGS  CLOUDY    45  45 100 SE5       30.01S FOG     WCI  42
*EAGLE PASS    CLOUDY    46  43  87 SE6       30.01F WCI  43
$$

TXZ173-191>194-202-209-217>225-228-170400-
CENTRAL AND SOUTH CENTRAL TEXAS

CITY           SKY/WX    TMP DP  RH WIND       PRES   REMARKS
GEORGETOWN     CLOUDY    43  42  97 CALM      30.08F
AUSTIN/BERGSTM LGT RAIN  45  45 100 N5        30.05R FOG     WCI  43
AUSTIN/MABRY   CLOUDY    44  43  96 CALM      30.07S
*AUSTIN/EXEC   CLOUDY    43  43 100 CALM      30.07R FOG
*LAGO VISTA    LGT RAIN  43  43  99 E5        30.02F WCI  40
SAN MARCOS     CLOUDY    44  43  96 N7        30.06S WCI  40
NEW BRAUNFELS  CLOUDY    45  43  93 E6        30.02F WCI  42
RANDOLPH AFB   CLOUDY    44  43  94 N6        30.02F WCI  41
PT SAN ANTONIO CLOUDY    46  45  96 N5        30.01F WCI  43
SAN ANTONIO    CLOUDY    45  43  93 NE3       30.02F FOG
STINSON FIELD  CLOUDY    46  45  96 NE5       30.00F WCI  44
*LA GRANGE     LGT RAIN  46  46  97 N7        30.03F WCI  43
*GIDDINGS      LGT RAIN  43  42  97 NW5       30.08F WCI  40
*GONZALES      LGT RAIN  45  45 100 N3        30.06R
$$

TXZ163>164-176>182-195>201-210>213-226-227-235-170400-
SOUTHEAST TEXAS

CITY           SKY/WX    TMP DP  RH WIND       PRES   REMARKS
COLLEGE STN    HVY RAIN  46  45  96 NW13      30.09R FOG     WCI  40
*BRYAN         RAIN      44  44 100 NW6       30.06R WCI  40
*CALDWELL      HVY RAIN  44  44  97 W12       30.12R FOG     WCI  39
*CROCKETT      LGT RAIN  45  43  93 NW6       30.08R WCI  41
*BRENHAM       HVY RAIN  47  46  99 NW12      30.08R WCI  41
HUNTSVILLE     RAIN      46  45  96 VRB5      29.98F FOG     WCI  44
CONROE         RAIN      48  47  96 CALM      29.97F FOG
HOUSTON BUSH   RAIN      52  49  89 E14       29.94F FOG
HOUSTON HOBBY  LGT RAIN  57  57 100 E17G25    29.93F FOG
*HOUSTON SW AP LGT RAIN  57  56  97 E18G29    29.90F
PEARLAND       LGT RAIN  58  58 100 E12G25    29.94F FOG
HOUSTON HOOKS  LGT RAIN  50  48  93 NE3       29.95F
ELLINGTON FLD  LGT RAIN  54  46  76 E15       29.95F
SUGAR LAND     HVY RAIN  56  55  97 E5G18     29.92F FOG
*HOUSTON EXEC  NOT AVBL
*CLEVELAND MUN RAIN      53  45  74 E7        29.98F
*WHARTON       RAIN      49  48  94 NW15      30.01R WCI  44
*COLUMBUS      DRIZZLE   46  45  95 N14       30.05R WCI  40
*EAGLE LAKE    RAIN      48  48  98 NW10G21   30.03R WCI  44
$$

TXZ214>216-236>238-170400-
THE UPPER TEXAS COAST

CITY           SKY/WX    TMP DP  RH WIND       PRES   REMARKS
*ORANGE        CLOUDY    57  47  70 E9G18     30.05S
PORT ARTHUR    CLOUDY    57  44  62 E15       30.02F
GALVESTON      CLOUDY    64  63  96 E24       29.93F FOG
ANGLETON       LGT RAIN  64  62  93 E15G24    29.89F FOG
*BAY CITY      HVY RAIN  65  65  99 W16G26    29.94R
PALACIOS       LGT RAIN  53  53 100 NW15G23   29.99R
$$

TXZ229>234-239>247-170400-
TEXAS COASTAL BEND AND RIO GRANDE PLAINS

CITY           SKY/WX    TMP DP  RH WIND       PRES   REMARKS
VICTORIA       CLOUDY    47  45  93 N14G25    30.01S WCI  41
*BEEVILLE      CLOUDY    45  44  97 N9        30.03S WCI  40
ROCKPORT       CLOUDY    48  47  96 NW14      30.03R WCI  42
*PORT ARANSAS  NOT AVBL
*PORT LAVACA   DRIZZLE   49  47  94 N13       30.01R WCI  43
*INGLESIDE     CLOUDY    49  47  92 NW14      30.02R WCI  44
CORPUS CHRISTI CLOUDY    47  46  97 N15G22    30.03S WCI  41
CORPUS NAS     CLOUDY    50  48  93 NW20      30.03R WCI  44
*ROBSTOWN      CLOUDY    47  46  96 N10       30.03S WCI  42
ALICE          CLOUDY    47  45  93 N8        30.02F WCI  43
KINGSVILLE NAS CLOUDY    48  48 100 NW10      30.04R WCI  43
COTULLA        CLOUDY    47  45  93 CALM      30.05R
*FAITH RANCH   CLOUDY    46  46 100 E6        30.02R WCI  43
LAREDO         CLOUDY    47  45  93 MISG      30.03S
$$

TXZ248>255-170400-
DEEP SOUTH TEXAS

CITY           SKY/WX    TMP DP  RH WIND       PRES   REMARKS
BROWNSVILLE    CLOUDY    51  50  96 NW8       30.06R
PORT ISABEL    CLOUDY    50  49  96 NW10      30.05R FOG     WCI  46
*SOUTH PADRE   NOT AVBL
HARLINGEN      CLOUDY    49  49 100 NW8       30.04R FOG     WCI  45
*HEBBRONVILLE  CLOUDY    46  45  97 CALM      30.03S
MCALLEN        CLOUDY    51  49  92 NW5       30.06R
*WESLACO       CLOUDY    48  46  93 NW12      30.04R FOG     WCI  43
FALFURRIAS     CLOUDY    49  46  88 CALM      30.04R
EDINBURG       CLOUDY    50  48  90 CALM      30.06R
*ZAPATA        CLOUDY    48  48  99 N3        30.03S
$$

TXZ213>215-236>238-242>244-246-247-251-254-255-170400-
CMAN STATIONS

STATION/POSITION TIME  TEMP    WIND        PRES    WAVE
                       AIR SEA DIR/SP/G            HT/PER
                 (UTC) (F)     (DEG/KT/KT) (MB)    (FT/S)
SABINE PASS      0230   58 60  100/ 19/ 23 1017.8
SEA RIM ST PARK  0200   58     100/ 19/ 25 1016.8
NORTH JETTY/GLS  0230      58   90/ 26/ 30 1014.0
EAGLE POINT      0230   58 54  110/ 24/ 28 1014.0
MORGANS POINT    0230   56 57   90/ 15/ 20 1014.1
PORT O`CONNOR    0230   53 61  300/ 16/ 20 1014.9
MALAQUITE BEACH  0154   51 62  300/ 11/ 15 1015.6
BAFFIN BAY       0230   48 54  310/ 14/ 17 1016.8
PORT ISABEL      0230   49 60  290/  6/  8 1017.0
$$



USA.gov is the U.S. government's official web portal to all federal, state and local government web resources and services.